EIN4KA EGAC-EGLL

Flight info

Callsign EIN4KA
Flight time 0h 52m
Altitude 31000
Route DUFFY L10 RINGA Q39 ETIGA DCT INKOB Q39 NOMSU UQ4 WAL UY53 NUGRA
Aircraft A320/M-SDE3FGHIRWY/LB1

Departure

Time 2026-04-22 12:33
Airport George Best Belfast City Airport (EGAC)

Arrival

Time 2026-04-22 13:25
Airport London Heathrow Airport (EGLL)
Time Latitude Longitude Altitude Speed Heading
2026-04-22 12:15 54.61412 -5.87265 21 ft 0 kts 124°
2026-04-22 12:15 54.61412 -5.87266 21 ft 0 kts 124°
2026-04-22 12:23 54.61412 -5.87267 20 ft 0 kts 124°
2026-04-22 12:25 54.61415 -5.87274 20 ft 2 kts 126°
2026-04-22 12:25 54.61428 -5.87299 21 ft 3 kts 145°
2026-04-22 12:25 54.61445 -5.87314 23 ft 3 kts 180°
2026-04-22 12:26 54.61459 -5.87310 22 ft 1 kts 214°
2026-04-22 12:26 54.61461 -5.87308 22 ft 3 kts 214°
2026-04-22 12:28 54.61444 -5.87328 22 ft 6 kts 215°
2026-04-22 12:28 54.61417 -5.87360 19 ft 2 kts 215°
2026-04-22 12:28 54.61392 -5.87422 18 ft 8 kts 237°
2026-04-22 12:28 54.61349 -5.87491 17 ft 9 kts 219°
2026-04-22 12:29 54.61306 -5.87544 17 ft 7 kts 213°
2026-04-22 12:29 54.61275 -5.87578 18 ft 4 kts 212°
2026-04-22 12:29 54.61256 -5.87598 18 ft 5 kts 212°
2026-04-22 12:29 54.61215 -5.87642 18 ft 10 kts 211°
2026-04-22 12:30 54.61125 -5.87753 21 ft 4 kts 218°
2026-04-22 12:30 54.61096 -5.87791 22 ft 10 kts 219°
2026-04-22 12:30 54.61083 -5.87882 22 ft 8 kts 272°
2026-04-22 12:31 54.61106 -5.87963 22 ft 8 kts 307°
2026-04-22 12:31 54.61141 -5.88024 22 ft 6 kts 332°
2026-04-22 12:31 54.61163 -5.88019 23 ft 2 kts 26°
2026-04-22 12:31 54.61167 -5.88015 23 ft 1 kts 30°
2026-04-22 12:32 54.61171 -5.88011 23 ft 1 kts 31°
2026-04-22 12:32 54.61870 -5.87161 26 ft 126 kts 38°
2026-04-22 12:32 54.62634 -5.86036 266 ft 154 kts 45°
2026-04-22 12:33 54.63493 -5.84906 946 ft 157 kts 41°
2026-04-22 12:33 54.64421 -5.83871 1736 ft 162 kts 40°
2026-04-22 12:33 54.65291 -5.82612 2418 ft 165 kts 46°
2026-04-22 12:33 54.66134 -5.81292 3114 ft 158 kts 69°
2026-04-22 12:34 54.66380 -5.79555 3685 ft 150 kts 99°
2026-04-22 12:34 54.66023 -5.77837 4090 ft 166 kts 126°
2026-04-22 12:34 54.65054 -5.76483 4644 ft 193 kts 154°
2026-04-22 12:34 54.63794 -5.76120 5991 ft 190 kts 174°
2026-04-22 12:35 54.62338 -5.76481 6507 ft 230 kts 192°
2026-04-22 12:35 54.60702 -5.77739 6708 ft 283 kts 203°
2026-04-22 12:35 54.58851 -5.79532 6928 ft 323 kts 205°
2026-04-22 12:35 54.56915 -5.81190 7114 ft 296 kts 195°
2026-04-22 12:36 54.55012 -5.81926 7301 ft 274 kts 179°
2026-04-22 12:36 54.53126 -5.81696 7779 ft 272 kts 165°
2026-04-22 12:36 54.51320 -5.80736 8512 ft 272 kts 155°
2026-04-22 12:36 54.49646 -5.79208 9268 ft 274 kts 145°
2026-04-22 12:37 54.48151 -5.77159 10006 ft 277 kts 136°
2026-04-22 12:37 54.46891 -5.74644 10395 ft 278 kts 126°
2026-04-22 12:37 54.45782 -5.71865 10655 ft 296 kts 126°
2026-04-22 12:37 54.44577 -5.68861 10984 ft 314 kts 126°
2026-04-22 12:38 54.43319 -5.65729 11633 ft 321 kts 126°
2026-04-22 12:38 54.42041 -5.62553 12337 ft 325 kts 126°
2026-04-22 12:38 54.40746 -5.59339 13019 ft 329 kts 126°
2026-04-22 12:38 54.39433 -5.56082 13716 ft 334 kts 126°
2026-04-22 12:39 54.38105 -5.52795 14391 ft 338 kts 126°
2026-04-22 12:39 54.35389 -5.46092 15545 ft 347 kts 127°
2026-04-22 12:39 54.34001 -5.42673 16087 ft 352 kts 126°
2026-04-22 12:40 54.32598 -5.39211 16623 ft 356 kts 126°
2026-04-22 12:40 54.31197 -5.35773 17132 ft 362 kts 127°
2026-04-22 12:40 54.29782 -5.32360 17615 ft 367 kts 128°
2026-04-22 12:40 54.28405 -5.29077 18048 ft 373 kts 126°
2026-04-22 12:41 54.26995 -5.25679 18486 ft 379 kts 126°
2026-04-22 12:41 54.25514 -5.21902 18926 ft 385 kts 128°
2026-04-22 12:41 54.23847 -5.18296 19379 ft 389 kts 132°
2026-04-22 12:41 54.22062 -5.14786 19827 ft 393 kts 133°
2026-04-22 12:42 54.20232 -5.11290 20292 ft 397 kts 134°
2026-04-22 12:42 54.18389 -5.07739 20747 ft 402 kts 133°
2026-04-22 12:42 54.16555 -5.04109 21211 ft 406 kts 133°
2026-04-22 12:42 54.14728 -5.00393 21676 ft 410 kts 131°
2026-04-22 12:43 54.12907 -4.96623 22134 ft 414 kts 131°
2026-04-22 12:43 54.11076 -4.92812 22577 ft 418 kts 131°
2026-04-22 12:43 54.09222 -4.88961 23019 ft 421 kts 131°
2026-04-22 12:43 54.07350 -4.85087 23438 ft 425 kts 131°
2026-04-22 12:44 54.05458 -4.81195 23877 ft 428 kts 131°
2026-04-22 12:44 54.03557 -4.77268 24237 ft 432 kts 131°
2026-04-22 12:44 54.01697 -4.73239 24593 ft 435 kts 129°
2026-04-22 12:44 53.99871 -4.69116 24949 ft 437 kts 129°
2026-04-22 12:45 53.98084 -4.65004 25288 ft 440 kts 128°
2026-04-22 12:45 53.96262 -4.60813 25626 ft 442 kts 128°
2026-04-22 12:45 53.94422 -4.56625 25959 ft 444 kts 129°
2026-04-22 12:45 53.92555 -4.52433 26292 ft 446 kts 129°
2026-04-22 12:46 53.90665 -4.48238 26621 ft 448 kts 129°
2026-04-22 12:46 53.88763 -4.44038 26943 ft 450 kts 129°
2026-04-22 12:46 53.86852 -4.39811 27262 ft 453 kts 129°
2026-04-22 12:46 53.84988 -4.35505 27575 ft 455 kts 127°
2026-04-22 12:47 53.83170 -4.31097 27877 ft 457 kts 126°
2026-04-22 12:47 53.81378 -4.26629 28185 ft 460 kts 126°
2026-04-22 12:47 53.79588 -4.22133 28474 ft 462 kts 126°
2026-04-22 12:47 53.77810 -4.17689 28756 ft 464 kts 126°
2026-04-22 12:48 53.75985 -4.13179 29028 ft 466 kts 126°
2026-04-22 12:48 53.74138 -4.08674 29280 ft 468 kts 127°
2026-04-22 12:48 53.72270 -4.04162 29529 ft 470 kts 127°
2026-04-22 12:48 53.70386 -3.99639 29772 ft 472 kts 127°
2026-04-22 12:49 53.68493 -3.95102 30010 ft 474 kts 127°
2026-04-22 12:49 53.66596 -3.90549 30231 ft 476 kts 127°
2026-04-22 12:49 53.64692 -3.85980 30444 ft 477 kts 127°
2026-04-22 12:49 53.62783 -3.81397 30594 ft 478 kts 127°
2026-04-22 12:50 53.60868 -3.76805 30764 ft 480 kts 127°
2026-04-22 12:50 53.58973 -3.72270 30925 ft 481 kts 127°
2026-04-22 12:50 53.57045 -3.67664 31092 ft 482 kts 127°
2026-04-22 12:50 53.55114 -3.63058 31249 ft 482 kts 127°
2026-04-22 12:51 53.53175 -3.58441 31349 ft 483 kts 127°
2026-04-22 12:51 53.49283 -3.49225 31366 ft 484 kts 127°
2026-04-22 12:52 53.45843 -3.39541 31368 ft 486 kts 114°
2026-04-22 12:52 53.43209 -3.29091 31371 ft 486 kts 114°
2026-04-22 12:53 53.40564 -3.18741 31375 ft 486 kts 114°
2026-04-22 12:53 53.37215 -3.08966 31380 ft 485 kts 128°
2026-04-22 12:54 53.33183 -2.99927 31383 ft 485 kts 128°
2026-04-22 12:54 53.29148 -2.90882 31384 ft 485 kts 128°
2026-04-22 12:55 53.25105 -2.81840 31382 ft 486 kts 128°
2026-04-22 12:55 53.21047 -2.72820 31381 ft 486 kts 128°
2026-04-22 12:56 53.17002 -2.63879 31358 ft 486 kts 128°
2026-04-22 12:56 53.12938 -2.54889 31359 ft 487 kts 127°
2026-04-22 12:57 53.09064 -2.45631 31371 ft 487 kts 124°
2026-04-22 12:57 53.05321 -2.36232 31373 ft 488 kts 124°
2026-04-22 12:58 53.01053 -2.27598 30866 ft 479 kts 140°
2026-04-22 12:58 52.98440 -2.24228 30164 ft 473 kts 148°
2026-04-22 12:58 52.95645 -2.21403 29419 ft 468 kts 153°
2026-04-22 12:58 52.92792 -2.18878 28745 ft 463 kts 154°
2026-04-22 12:59 52.89952 -2.16412 28086 ft 459 kts 154°
2026-04-22 12:59 52.87169 -2.13868 27466 ft 455 kts 152°
2026-04-22 12:59 52.84490 -2.11245 26857 ft 452 kts 150°
2026-04-22 12:59 52.81838 -2.08502 26274 ft 448 kts 149°
2026-04-22 13:00 52.79234 -2.05720 25705 ft 444 kts 148°
2026-04-22 13:00 52.76659 -2.02949 25143 ft 440 kts 148°
2026-04-22 13:00 52.74099 -2.00212 24582 ft 437 kts 148°
2026-04-22 13:00 52.71543 -1.97523 24020 ft 434 kts 148°
2026-04-22 13:01 52.69006 -1.94890 23449 ft 430 kts 149°
2026-04-22 13:01 52.66481 -1.92296 22927 ft 425 kts 149°
2026-04-22 13:01 52.63981 -1.89737 22429 ft 420 kts 149°
2026-04-22 13:01 52.61515 -1.87211 21961 ft 415 kts 148°
2026-04-22 13:02 52.59086 -1.84716 21494 ft 410 kts 148°
2026-04-22 13:02 52.56728 -1.82297 21067 ft 405 kts 148°
2026-04-22 13:02 52.54304 -1.79814 20657 ft 399 kts 148°
2026-04-22 13:02 52.51956 -1.77406 20431 ft 397 kts 148°
2026-04-22 13:03 52.49645 -1.75041 20220 ft 395 kts 148°
2026-04-22 13:03 52.47322 -1.72665 20001 ft 393 kts 148°
2026-04-22 13:03 52.45006 -1.70299 19788 ft 390 kts 147°
2026-04-22 13:03 52.42708 -1.67955 19571 ft 388 kts 147°
2026-04-22 13:04 52.40424 -1.65629 19351 ft 385 kts 147°
2026-04-22 13:04 52.38152 -1.63321 19140 ft 383 kts 147°
2026-04-22 13:04 52.35892 -1.61024 18924 ft 381 kts 147°
2026-04-22 13:04 52.33651 -1.58744 18712 ft 378 kts 147°
2026-04-22 13:05 52.31420 -1.56480 18522 ft 376 kts 147°
2026-04-22 13:05 52.29205 -1.54238 18284 ft 374 kts 147°
2026-04-22 13:05 52.26996 -1.52012 18026 ft 372 kts 147°
2026-04-22 13:05 52.24801 -1.49802 17805 ft 369 kts 147°
2026-04-22 13:06 52.22652 -1.47634 17567 ft 367 kts 147°
2026-04-22 13:06 52.20570 -1.45257 17331 ft 364 kts 142°
2026-04-22 13:06 52.18601 -1.42681 17097 ft 362 kts 139°
2026-04-22 13:06 52.16703 -1.40002 16871 ft 360 kts 138°
2026-04-22 13:07 52.14843 -1.37295 16638 ft 357 kts 137°
2026-04-22 13:07 52.12993 -1.34609 16410 ft 355 kts 138°
2026-04-22 13:07 52.11147 -1.31966 16189 ft 353 kts 138°
2026-04-22 13:07 52.09300 -1.29357 15957 ft 351 kts 139°
2026-04-22 13:08 52.07455 -1.26774 15737 ft 348 kts 139°
2026-04-22 13:08 52.05624 -1.24236 15318 ft 345 kts 139°
2026-04-22 13:08 52.03808 -1.21727 14897 ft 341 kts 139°
2026-04-22 13:08 52.02005 -1.19242 14413 ft 338 kts 139°
2026-04-22 13:09 52.00220 -1.16784 13981 ft 335 kts 139°
2026-04-22 13:09 51.98452 -1.14351 13493 ft 333 kts 139°
2026-04-22 13:09 51.96717 -1.11957 12996 ft 330 kts 139°
2026-04-22 13:09 51.94976 -1.09552 12539 ft 328 kts 139°
2026-04-22 13:10 51.93250 -1.07170 12076 ft 325 kts 139°
2026-04-22 13:10 51.91535 -1.04808 11603 ft 322 kts 139°
2026-04-22 13:10 51.89838 -1.02479 11139 ft 320 kts 139°
2026-04-22 13:10 51.88142 -1.00154 10683 ft 317 kts 139°
2026-04-22 13:11 51.86474 -0.97865 10360 ft 310 kts 139°
2026-04-22 13:11 51.85054 -0.95355 10236 ft 297 kts 121°
2026-04-22 13:11 51.84092 -0.92481 10091 ft 285 kts 124°
2026-04-22 13:11 51.82714 -0.90276 9805 ft 278 kts 143°
2026-04-22 13:12 51.81112 -0.88539 9404 ft 277 kts 146°
2026-04-22 13:12 51.79495 -0.86875 9040 ft 274 kts 146°
2026-04-22 13:12 51.78427 -0.85788 8785 ft 273 kts 146°
2026-04-22 13:12 51.76302 -0.83646 8247 ft 271 kts 146°
2026-04-22 13:13 51.74703 -0.82052 7995 ft 270 kts 146°
2026-04-22 13:13 51.73037 -0.80624 7983 ft 275 kts 159°
2026-04-22 13:13 51.71154 -0.80322 7986 ft 269 kts 178°
2026-04-22 13:13 51.69326 -0.80565 7868 ft 259 kts 181°
2026-04-22 13:14 51.67567 -0.80858 7737 ft 249 kts 181°
2026-04-22 13:14 51.66442 -0.81057 7654 ft 243 kts 181°
2026-04-22 13:14 51.64795 -0.81362 7479 ft 235 kts 181°
2026-04-22 13:14 51.63179 -0.81671 7249 ft 232 kts 181°
2026-04-22 13:15 51.61576 -0.81981 6954 ft 231 kts 181°
2026-04-22 13:15 51.59483 -0.82437 6715 ft 227 kts 188°
2026-04-22 13:15 51.58108 -0.83696 6585 ft 233 kts 218°
2026-04-22 13:15 51.57048 -0.85643 6457 ft 230 kts 225°
2026-04-22 13:16 51.56384 -0.87002 6374 ft 227 kts 225°
2026-04-22 13:16 51.55448 -0.88957 6270 ft 219 kts 226°
2026-04-22 13:16 51.54369 -0.90461 6105 ft 195 kts 194°
2026-04-22 13:16 51.53085 -0.91033 5815 ft 188 kts 183°
2026-04-22 13:17 51.51803 -0.91398 5500 ft 185 kts 181°
2026-04-22 13:17 51.50599 -0.91311 5135 ft 170 kts 149°
2026-04-22 13:17 51.49707 -0.90172 4784 ft 164 kts 129°
2026-04-22 13:17 51.48958 -0.88790 4400 ft 164 kts 126°
2026-04-22 13:18 51.48219 -0.87389 4034 ft 165 kts 126°
2026-04-22 13:18 51.47644 -0.85822 3982 ft 163 kts 104°
2026-04-22 13:18 51.47544 -0.84024 3982 ft 162 kts 90°
2026-04-22 13:18 51.47560 -0.82216 3979 ft 162 kts 90°
2026-04-22 13:19 51.47574 -0.80401 3984 ft 163 kts 90°
2026-04-22 13:19 51.47586 -0.78594 3987 ft 157 kts 90°
2026-04-22 13:19 51.47598 -0.76935 3996 ft 143 kts 90°
2026-04-22 13:19 51.47608 -0.75333 3815 ft 146 kts 90°
2026-04-22 13:20 51.47618 -0.73723 3450 ft 147 kts 89°
2026-04-22 13:20 51.47629 -0.72080 3111 ft 147 kts 89°
2026-04-22 13:20 51.47638 -0.70461 2867 ft 145 kts 89°
2026-04-22 13:20 51.47648 -0.68858 2646 ft 140 kts 90°
2026-04-22 13:21 51.47656 -0.67322 2442 ft 137 kts 88°
2026-04-22 13:21 51.47665 -0.65786 2263 ft 139 kts 89°
2026-04-22 13:21 51.47673 -0.64249 2063 ft 137 kts 89°
2026-04-22 13:21 51.47681 -0.62723 1877 ft 137 kts 89°
2026-04-22 13:22 51.47689 -0.61204 1695 ft 137 kts 89°
2026-04-22 13:22 51.47697 -0.59665 1499 ft 136 kts 89°
2026-04-22 13:22 51.47704 -0.58196 1321 ft 128 kts 88°
2026-04-22 13:22 51.47711 -0.56832 1157 ft 119 kts 90°
2026-04-22 13:23 51.47717 -0.55516 984 ft 120 kts 88°
2026-04-22 13:23 51.47723 -0.54190 839 ft 120 kts 89°
2026-04-22 13:23 51.47731 -0.52854 683 ft 119 kts 90°
2026-04-22 13:23 51.47723 -0.51524 486 ft 121 kts 89°
2026-04-22 13:24 51.47723 -0.50167 339 ft 121 kts 88°
2026-04-22 13:24 51.47749 -0.48814 200 ft 123 kts 89°
2026-04-22 13:24 51.47754 -0.47493 107 ft 108 kts 89°
2026-04-22 13:24 51.47759 -0.46485 91 ft 71 kts 89°
2026-04-22 13:25 51.47759 -0.45785 87 ft 52 kts 89°
2026-04-22 13:25 51.47733 -0.45492 87 ft 16 kts 147°
2026-04-22 13:25 51.47662 -0.45469 86 ft 0 kts 183°
2026-04-22 13:26 51.47613 -0.45472 87 ft 14 kts 181°
2026-04-22 13:26 51.47538 -0.45466 89 ft 4 kts 155°
2026-04-22 13:26 51.47521 -0.45448 87 ft 8 kts 141°
2026-04-22 13:26 51.47502 -0.45362 87 ft 9 kts 94°
2026-04-22 13:27 51.47507 -0.45236 89 ft 17 kts 86°
2026-04-22 13:27 51.47511 -0.45041 89 ft 17 kts 95°
2026-04-22 13:27 51.47509 -0.44864 91 ft 15 kts 88°
2026-04-22 13:27 51.47511 -0.44704 90 ft 14 kts 90°
2026-04-22 13:28 51.47481 -0.44577 91 ft 12 kts 149°
2026-04-22 13:28 51.47392 -0.44561 89 ft 13 kts 178°
2026-04-22 13:28 51.47283 -0.44559 87 ft 21 kts 179°
2026-04-22 13:28 51.47132 -0.44563 88 ft 23 kts 180°
2026-04-22 13:29 51.46970 -0.44559 87 ft 24 kts 180°
2026-04-22 13:29 51.46808 -0.44554 87 ft 14 kts 179°
2026-04-22 13:29 51.46753 -0.44634 89 ft 11 kts 262°
2026-04-22 13:29 51.46751 -0.44747 87 ft 10 kts 270°
2026-04-22 13:30 51.46752 -0.44833 87 ft 5 kts 282°
2026-04-22 13:30 51.46774 -0.44845 88 ft 3 kts 354°
2026-04-22 13:30 51.46791 -0.44848 87 ft 2 kts 353°
2026-04-22 13:30 51.46807 -0.44851 87 ft 5 kts 353°
2026-04-22 13:31 51.46844 -0.44859 87 ft 6 kts 353°
2026-04-22 13:31 51.46846 -0.44859 87 ft 0 kts 353°
2026-04-22 13:38 51.46845 -0.44859 87 ft 0 kts 353°